Home   Weather   Davenport   Past weeks
Flag for USA

Past Weather in Davenport, Iowa, USA — Yesterday and Last 2 Weeks

Now
52 °F

Mostly cloudy.


Feels Like: 50 °F
Forecast: 63 / 44 °F
Wind: 7 mph from South

Location: Davenport Municipal Airport

Current Time: Oct 15, 2019 at 9:10:58 am

Latest Report: Oct 15, 2019 at 8:15 am


Visibility: 10 mi

Pressure: 29.83 "Hg

Humidity: 75%

Dew Point: 44 °F

Location of DavenportLocation

Past Weather in Davenport — Graph

°F

Davenport Temperature Yesterday

Maximum temperature yesterday: 58 °F (at 3:52 pm)
Minimum temperature yesterday: 31 °F (at 3:52 am)
Average temperature yesterday: 44 °F

High & Low Weather Summary for the Past Weeks

 TemperatureHumidityPressure
High87 °F (Sep 30, 2:52 pm)96% (Oct 3, 2:52 am)30.44 "Hg (Oct 3, 2:52 am)
Low31 °F (Oct 14, 3:52 am)28% (Oct 12, 4:52 pm)29.76 "Hg (Oct 2, 3:52 am)
Average56 °F73%30.03 "Hg
* Reported Sep 30 7:52 am — Oct 15 7:52 am, Davenport. Weather by CustomWeather, © 2019

Note: Actual official high and low records may vary slightly from our data, if they occured in-between our weather recording intervals... More about our weather records

Advertising

Davenport Weather History for the Previous 24 Hours

Scroll right to see more
 ConditionsComfort  
Time TempWeatherWind HumidityBarometerVisibility
7:52 am
Tue, Oct 15
50 °FBroken clouds.6 mph74%29.83 "Hg10 mi
6:52 am49 °FMostly cloudy.7 mph71%29.84 "Hg10 mi
5:52 am48 °FMostly cloudy.8 mph71%29.85 "Hg10 mi
4:52 am46 °FPassing clouds.9 mph73%29.87 "Hg10 mi
3:52 am48 °FPassing clouds.8 mph68%29.90 "Hg10 mi
2:52 am45 °FPassing clouds.8 mph74%29.93 "Hg10 mi
1:52 am43 °FClear.7 mph76%29.96 "Hg10 mi
12:52 am43 °FClear.7 mph79%29.97 "Hg10 mi
11:52 pm
Mon, Oct 14
43 °FClear.7 mph76%29.97 "Hg10 mi
10:52 pm44 °FClear.7 mph73%29.98 "Hg10 mi
9:52 pm45 °FClear.7 mph74%29.99 "Hg10 mi
8:52 pm45 °FClear.7 mph74%30.01 "Hg10 mi
7:52 pm46 °FClear.6 mph68%30.02 "Hg10 mi
6:52 pm49 °FClear.6 mph61%30.02 "Hg10 mi
5:52 pm55 °FSunny.3 mph49%30.03 "Hg10 mi
4:52 pm57 °FSunny.6 mph46%30.03 "Hg10 mi
3:52 pm58 °FSunny.7 mph43%30.05 "Hg10 mi
2:52 pm55 °FSunny.5 mph47%30.06 "Hg10 mi
1:52 pm53 °FSunny.5 mph47%30.08 "Hg10 mi
12:52 pm52 °FSunny.6 mph49%30.11 "Hg10 mi
11:52 am50 °FSunny.3 mph52%30.12 "Hg10 mi
10:52 am47 °FSunny.No wind56%30.12 "Hg10 mi
9:52 am45 °FSunny.3 mph63%30.13 "Hg10 mi
Weather by CustomWeather, © 2019

See weather overview